CAPE
0 0 0 0 0 0 0 0 0 1 0 0 0 0 0 0 0 0 0 9 550 918 948 1345 1029 1228 1653 2291 2052 1615 1041 1828
0 0 0 0 0 0 0 0 0 5 7 18 5 0 0 0 0 1 0 200 585 1011 1055 949 1074 1270 1388 1466 1951 1836 1292 1143
0 0 0 0 0 0 0 0 4 23 61 8 2 0 0 0 0 0 0 57 991 1262 1232 953 1178 1269 1571 1495 1914 1916 1687 2107
0 0 0 0 1 0 0 0 0 0 2 0 6 1 0 0 0 0 22 59 1270 1569 1550 1207 1442 1498 1709 2070 1655 2045 2625 3173
1 3 10 0 0 0 5 6 17 24 75 37 22 18 10 8 0 0 166 552 1510 1758 1930 2082 1898 2214 1678 1915 2332 1917 2897 2808
10 40 29 6 9 0 0 17 30 33 55 47 25 31 28 36 13 35 609 945 1741 1904 1989 2216 3044 3345 3267 2625 2299 2908 2611 2717
1 4 0 6 19 15 8 7 15 14 34 62 79 69 37 42 23 336 1081 1345 1930 2063 2608 3545 3614 3741 3687 2911 3386 2787 3638 2647
9 16 12 2 12 14 15 13 2 0 6 5 23 29 46 68 94 560 889 1709 1963 2109 2421 2618 2938 4104 3750 3870 3741 3662 3963 3525
27 25 43 43 8 6 13 23 29 29 23 37 30 41 74 202 435 667 1417 1843 2183 2263 2345 2814 2838 3121 3310 3929 4189 4262 4683 4481
62 84 51 39 57 50 30 36 29 25 24 40 98 119 262 924 1339 1402 1186 1820 2451 2508 2634 2965 3003 3030 3187 3379 4425 4645 4702 4437
92 101 46 59 50 47 54 33 29 58 53 101 271 173 508 1378 1273 1411 1496 2117 2637 2758 2917 3090 3013 3302 3740 3279 3498 3692 3555 4289
71 74 49 49 24 21 25 15 23 15 121 263 538 754 1343 1380 1429 1549 1459 2316 2639 2856 3045 3185 3095 3085 3305 3381 3466 3508 3899 3637
91 93 31 29 38 26 66 80 578 478 678 764 977 1284 1185 1243 1604 1723 1610 2239 2708 3122 3247 3311 3229 3086 3499 3740 2642 1405 1764 1049
94 106 69 65 50 99 144 172 313 324 404 506 683 760 934 1020 1420 1724 1708 2051 2292 2804 3472 3328 3189 3393 3434 2586 718 814 656 336
82 111 207 155 305 134 65 66 151 299 267 192 241 405 618 934 1182 1817 1749 1926 1854 2121 2885 2351 2422 2288 2225 1570 917 754 284 9
295 80 231 147 223 181 70 171 317 109 49 70 179 211 326 759 1060 1454 1947 1897 2138 2619 2444 2597 2772 2401 2158 1154 816 426 345 86
180 215 401 131 171 245 124 123 22 10 4 55 63 226 329 647 1058 1357 2145 1924 2301 2669 2425 2721 2505 2299 1708 1330 1085 645 245 6
62 189 352 350 255 133 77 52 38 45 35 74 93 197 452 431 893 1376 2142 2307 2647 2407 2621 2368 2037 1681 1386 1040 1071 504 104 0
55 65 56 52 48 32 33 24 17 1 22 93 112 292 409 464 698 1041 1977 2497 2636 2492 2551 2020 1917 1417 1246 1167 1048 311 96 1
CIN
0 0 0 0 0 0 0 0 0 0 0 0 0 0 0 0 0 0 0 -15 -4 -26 -26 -8 -21 -19 -13 -1 -18 -31 -48 -9
0 0 0 0 0 0 0 0 0 0 0 0 -1 0 0 0 0 -1 0 -17 -15 -27 -31 -34 -26 -19 -26 -28 -34 -43 -34 -37
0 0 0 0 0 0 0 0 0 0 0 -2 -1 0 0 0 0 0 0 -10 -24 -25 -34 -45 -19 -8 -23 -28 -25 -19 -24 -3
0 0 0 0 0 0 0 0 0 0 0 0 0 0 0 0 0 0 -17 -36 -28 -32 -34 -38 -23 -7 -20 -16 -23 -23 -9 0
0 0 0 0 0 0 0 0 0 0 0 -4 -1 -2 0 0 0 0 -12 -40 -36 -40 -51 -23 -21 -4 -23 -22 -17 -20 -7 -15
0 0 -1 -1 -2 0 0 0 0 0 -1 -5 -1 -2 -1 0 -1 -7 -16 -36 -41 -38 -57 -32 0 0 0 -16 -20 -9 -17 -26
0 0 0 0 -1 0 0 0 0 0 0 -5 -1 -4 -1 -2 -9 -8 -15 -29 -32 -42 -48 -8 -1 -2 -6 -17 -11 -20 0 -45
0 0 0 0 -1 0 0 0 0 0 0 0 -13 -16 -2 -31 -14 -1 -3 -28 -35 -38 -46 -69 -46 -15 -29 -15 -19 -14 -3 -32
0 0 0 0 0 0 0 0 0 0 0 -6 -3 -1 0 -1 -3 -16 -27 -14 -37 -46 -55 -49 -63 -64 -59 -34 -9 -6 0 -1
-1 0 0 0 -1 -1 0 0 0 0 -1 0 -1 -2 -2 -3 -37 -58 -44 -35 -44 -46 -57 -62 -75 -76 -73 -57 -5 -4 -1 0
0 0 0 0 -1 -1 0 0 0 0 0 -1 -2 -11 -12 -38 -84 -81 -76 -50 -62 -60 -65 -87 -96 -75 -46 -65 -45 -26 -28 -1
0 0 0 0 -8 -13 -2 0 -1 -3 -2 -1 -2 0 -12 -43 -68 -63 -95 -78 -77 -66 -88 -100 -95 -97 -71 -53 -42 -35 -8 -10
0 0 0 0 -1 -3 0 -1 -15 -9 -1 -1 0 -5 -44 -43 -59 -66 -97 -83 -76 -47 -51 -60 -75 -69 -41 -26 -151 -357 -262 -406
0 0 0 -1 -1 0 -5 -20 -8 -2 0 0 -17 -32 -21 -36 -44 -43 -78 -95 -85 -49 -27 -60 -58 -40 -47 -132 -489 -443 -460 -529
0 0 -13 -4 -16 -3 -2 -8 -7 -1 0 0 -13 -24 -19 -17 -17 -8 -58 -67 -83 -64 -44 -121 -125 -141 -148 -250 -354 -373 -495 -554
-11 0 0 -31 -8 0 -2 -4 -1 -10 -29 -3 -5 -28 -30 -3 -3 -4 -5 -39 -17 -35 -68 -62 -60 -99 -116 -278 -327 -405 -385 -443
-8 -5 -14 -1 0 -1 0 -1 -9 -26 -12 -10 -20 -12 -17 -8 -12 -3 0 -4 -1 -18 -32 -15 -58 -80 -140 -189 -206 -264 -340 -455
-1 -7 0 -5 -8 -9 -14 -4 -16 -17 -21 -6 -20 -3 -2 -26 -5 -11 0 0 0 0 -2 -11 -49 -114 -140 -180 -153 -253 -380 -215
-4 -24 -12 -12 -27 -3 -1 0 0 -1 -8 0 -3 0 0 -10 -34 -49 -1 0 0 -2 -1 -22 -26 -94 -121 -115 -111 -276 -323 -13
Wind_Speed
12 16 15 15 15 16 19 18 13 11 10 11 8 3 7 9 12 8 5 6 18 22 22 20 20 21 20 20 19 20 20 16
9 12 13 15 14 11 12 15 16 11 7 10 8 1 5 3 6 7 6 5 11 19 22 21 21 20 21 21 21 21 20 17
11 14 15 11 13 15 17 12 12 12 9 12 4 3 6 6 4 4 3 7 11 17 20 21 20 20 20 20 20 19 19 17
18 12 17 17 15 13 12 16 11 13 12 16 4 1 8 8 8 3 4 7 13 15 19 20 20 20 20 18 19 19 17 14
16 15 17 12 16 17 16 16 17 13 10 4 8 8 8 8 3 6 7 8 14 16 17 18 20 18 20 19 18 18 15 15
14 15 8 8 11 18 18 14 14 15 16 13 12 8 9 8 5 6 6 10 14 16 18 17 15 15 14 17 18 15 17 16
21 21 20 18 13 15 15 15 15 18 20 15 13 7 9 5 1 2 3 10 14 16 16 14 14 15 13 16 14 16 15 16
21 20 19 21 20 21 20 20 21 21 20 17 18 16 11 9 11 7 2 8 12 14 17 18 16 14 15 14 15 15 14 16
19 21 22 24 23 22 23 22 19 22 19 17 15 14 13 6 9 5 6 5 10 12 14 16 17 16 15 14 13 13 13 13
17 19 23 17 18 18 17 20 17 18 19 20 16 6 8 12 9 8 4 4 8 9 11 13 15 17 15 15 12 12 12 12
16 18 23 21 13 13 18 16 13 17 18 10 14 8 9 7 7 7 6 4 7 9 10 10 12 13 13 14 13 13 13 12
15 21 26 16 11 8 14 15 13 17 8 8 9 10 6 10 9 8 3 2 6 9 10 12 12 13 13 13 13 13 11 11
17 19 20 19 19 11 13 6 7 9 8 8 8 9 11 12 9 8 3 4 6 9 9 10 10 11 12 11 10 9 9 12
13 20 26 14 19 19 1 3 3 2 4 6 8 10 9 11 10 8 3 5 8 9 9 6 7 9 10 11 10 10 10 11
16 9 9 11 10 4 7 5 4 3 7 7 9 9 10 10 11 8 4 6 10 10 10 9 9 9 10 12 12 11 11 11
15 15 14 9 14 5 6 6 3 5 10 11 10 10 11 10 10 11 5 5 8 8 8 11 11 11 10 12 12 13 13 13
12 18 22 19 12 11 5 3 7 11 12 13 13 11 10 10 10 11 7 6 7 9 10 11 11 13 14 15 15 14 13 13
14 12 13 9 15 12 11 14 13 15 15 15 15 13 11 10 9 10 8 6 8 10 12 10 13 14 14 15 16 15 14 12
15 18 19 20 15 16 18 18 17 18 18 16 15 14 13 11 9 11 9 11 12 12 10 11 13 14 15 14 13 14 13 13
Wind_Direction
201 204 229 234 214 250 276 278 275 277 283 270 221 287 270 236 221 197 186 237 180 189 192 182 189 185 186 175 188 189 192 192
184 239 219 247 269 234 227 262 272 283 284 276 165 280 338 270 195 183 168 215 194 187 189 184 189 185 189 186 190 191 193 195
174 200 237 185 233 249 273 272 260 250 242 81 73 216 290 280 211 226 149 197 199 187 186 185 188 186 191 190 187 193 198 192
248 223 222 247 270 216 234 235 260 289 294 308 31 353 345 312 286 171 205 240 188 188 186 185 185 193 188 192 191 195 190 195
254 243 224 233 244 259 269 246 253 278 263 194 161 197 250 255 296 164 236 209 179 183 186 186 186 192 188 191 194 191 192 193
265 244 354 306 228 254 258 260 261 248 257 275 275 286 310 304 45 319 181 194 182 184 184 192 182 187 193 190 192 192 189 193
273 275 283 286 256 268 279 284 278 287 293 299 306 293 257 5 278 259 214 198 188 188 180 184 183 183 196 190 194 194 182 197
274 274 274 278 269 275 262 258 263 269 271 280 294 305 309 319 309 9 290 198 200 195 183 186 190 186 190 197 190 197 194 201
256 260 254 249 253 259 270 269 263 265 263 264 272 260 255 316 356 335 318 194 191 196 191 187 195 190 194 196 190 193 196 202
269 277 259 265 270 280 272 278 275 283 269 269 277 325 352 30 357 336 294 244 186 195 192 188 190 189 196 193 194 192 197 198
259 255 267 263 263 268 270 261 262 269 278 307 309 331 267 62 338 336 326 275 183 192 182 177 187 178 186 185 187 192 199 201
248 257 260 272 290 0 330 286 271 275 305 306 336 278 59 354 329 330 335 279 201 164 166 173 175 171 173 176 177 188 195 193
252 249 256 271 283 304 255 266 14 360 6 347 298 334 329 323 326 319 343 184 215 160 167 161 165 168 171 148 125 124 103 88
247 258 262 271 258 239 106 59 37 358 329 311 312 310 318 329 319 326 311 169 203 185 146 152 156 148 150 141 139 128 117 109
272 273 23 333 322 63 329 311 274 334 315 311 305 307 324 318 323 330 310 172 206 176 150 170 160 165 159 142 152 141 131 124
330 269 258 181 311 267 270 274 321 316 306 307 301 310 302 315 323 318 314 216 199 145 182 169 164 159 140 149 148 145 142 139
252 280 292 275 239 253 282 249 305 292 280 281 294 294 309 300 304 304 311 223 182 171 185 165 149 140 146 149 153 145 142 138
272 264 266 279 296 297 296 287 281 280 281 276 279 278 284 285 287 294 293 244 165 201 168 187 162 154 154 162 164 154 151 151
278 276 278 279 280 269 276 274 269 269 267 270 263 271 274 284 279 288 288 267 198 192 154 191 173 169 167 171 168 167 158 144